[[{"header":{"parameterUnit":"m.s-1","parameterCategory":1,"la1":30.2991,"la2":30.254,"lo1":-89.0895,"lo2":-89.0444,"dy":0.0017,"dx":0.0017,"nx":28,"ny":28,"refTime":"2023-07-24T21:00:00:Z","depth":0,"parameterNumber":2,"parameterNumberName":"U-component_of_WINDS"},"data":[0,0,0,0,0,0,0,0,0,0,0,0,0,0,0,0,0,0,0,0,0,0,0,0,0,0,0,0,0,0,0,0,0,0,0,0,0,0,0,0,0,0,0,0,0,0,0,0,0,0,0,0,0,0,0,0,0,0,2.2322,2.2323,0,2.2349,2.2349,2.235,2.2288,2.2286,2.2284,2.2282,2.2309,2.2311,2.2314,0,0,0,0,0,0,0,0,0,0,0,0,0,2.2217,2.2219,2.2322,2.2323,2.2323,2.2349,2.2349,2.235,2.2288,2.2286,2.2283,2.2281,2.2308,2.2311,2.2314,0,0,0,0,0,0,0,0,0,0,0,0,0,2.2255,2.222,2.2322,2.2295,2.2293,2.2349,2.2349,2.235,2.2289,2.2286,2.2283,2.228,2.2307,2.2311,2.2314,2.2397,0,0,2.2326,2.2328,0,0,0,0,0,0,0,0,2.2253,2.2259,2.2299,2.2297,2.2295,2.2312,2.2322,2.2366,2.2289,2.229,2.2282,2.2278,2.2312,2.2315,2.2327,2.2399,2.24,2.2327,2.2329,2.233,2.2332,0,0,0,0,0,0,0,2.225,2.2257,2.2333,2.23,2.2297,2.2282,2.2284,2.233,2.2318,2.229,2.2286,2.229,2.2311,2.2323,2.2327,2.24,2.2326,2.233,2.2332,2.2334,2.2539,2.2542,0,0,0,0,0,0,2.2251,2.2256,2.2332,2.2334,2.2266,2.2286,2.2288,2.231,2.2317,2.2315,2.2292,2.2287,2.2318,2.2323,2.2328,2.2424,2.233,2.2334,2.2336,2.2536,2.254,2.2543,0,0,0,0,0,0,2.2249,2.2259,2.2331,2.2293,2.2301,2.2291,2.2315,2.2312,2.2324,2.2318,2.2316,2.2308,2.2316,2.2322,2.238,2.2424,2.2336,2.2339,2.2532,2.2537,2.2542,2.2617,0,0,0,0,0,0,2.2246,2.2258,2.229,2.2295,2.2304,2.2383,2.2318,2.2314,2.2331,2.2324,2.2332,2.2331,2.2314,2.2375,2.2384,2.2428,2.2342,2.2528,2.2534,2.254,2.2611,2.2624,2.2635,0,0,0,0,0,2.2243,2.2311,2.2292,2.2301,2.2343,2.2386,2.2391,2.2371,2.2335,2.2366,2.2362,2.233,2.2418,2.2381,2.2391,2.2436,2.2525,2.2533,2.254,2.2605,2.2622,2.2635,0,0,0,0,0,0,2.2312,2.2311,2.229,2.2361,2.2374,2.2375,2.2414,2.2389,2.2412,2.2405,2.2379,2.2381,2.2443,2.2446,2.2405,2.2516,2.2465,2.2475,2.2512,2.2527,2.2539,2.2537,2.2345,0,0,0,0,0,2.2335,2.237,2.2367,2.2431,2.2438,2.2426,2.2443,2.2427,2.2439,2.2444,2.2444,2.2457,2.2487,2.2508,2.2535,2.2611,2.2611,2.2647,2.266,2.267,2.2678,2.2717,2.2732,2.2567,2.2567,2.2566,0,0,2.2384,2.2388,2.2412,2.2445,2.2452,2.2489,2.243,2.2472,2.2498,2.245,2.2504,2.2505,2.2517,2.2584,2.2614,2.2588,2.2724,2.2679,2.2687,2.2689,2.2725,2.2741,2.2755,2.2571,2.2571,2.257,0,0,2.2491,2.2498,2.2551,2.256,2.2572,2.2563,2.2576,2.2581,2.258,2.2634,2.2598,2.2629,2.2682,2.2692,2.2704,2.2814,2.2785,2.2824,2.2887,2.2925,2.2938,2.295,2.2987,2.3001,2.2832,2.2832,2.2832,0,2.255,2.2603,2.2581,2.2624,2.2639,2.2597,2.265,2.266,2.2681,2.2692,2.2663,2.2728,2.2733,2.2801,2.2828,2.284,2.2852,2.2822,2.2938,2.2949,2.296,2.2995,2.301,2.2837,2.2836,2.2836,2.2835,0,2.2674,2.2712,2.2753,2.2774,2.2793,2.2841,2.2825,2.2848,2.283,2.2823,2.2878,2.2883,2.2911,2.2926,2.2909,2.2991,2.2974,2.2943,2.2891,2.298,2.3013,2.3027,2.2843,2.2841,2.284,2.2839,0,0,2.2825,2.2832,2.2848,2.2856,2.2867,2.2895,2.2941,2.2967,2.2986,2.3002,2.3039,2.3084,2.3054,2.3068,2.3051,2.3085,2.317,2.3049,2.3049,2.307,2.3259,2.3282,2.3298,2.3151,2.3154,2.3156,2.3257,0,2.2929,2.3007,2.2988,2.3065,2.3099,2.3059,2.3099,2.3109,2.3105,2.3132,2.3127,2.3159,2.3118,2.3126,2.3157,2.3153,2.3207,2.3146,2.3184,2.3185,2.318,2.3315,2.334,2.3435,2.327,2.3272,2.3274,0,2.3062,2.3082,2.3162,2.3166,2.3179,2.3215,2.3237,2.3264,2.3275,2.3269,2.3284,2.3261,2.3305,2.3254,2.3313,2.3272,2.3286,2.3286,2.329,2.3291,2.3234,2.3319,2.3465,2.3479,2.3294,2.3293,2.3291,0,2.3162,2.3209,2.3263,2.3271,2.3278,2.3303,2.3307,2.3315,2.3332,2.3351,2.3361,2.3386,2.3399,2.3418,2.3401,2.3366,2.3463,2.3411,2.3458,2.3458,2.3479,2.3478,2.3628,2.3492,2.3491,2.3491,2.3491,0,2.3279,2.3329,2.3307,2.334,2.3395,2.3372,2.3427,2.3426,2.3433,2.3465,2.3433,2.3463,2.344,2.3468,2.3455,2.3506,2.3512,2.3508,2.3504,2.351,2.351,2.3518,2.351,2.3495,2.3494,2.3493,2.3493,0,2.3399,2.3387,2.3442,2.3444,2.3445,2.3485,2.3486,2.3516,2.3509,2.3549,2.3557,2.3546,2.3577,2.3563,2.3596,2.3587,2.3651,2.3639,2.3647,2.3643,2.3691,2.3686,2.385,2.387,2.3722,2.3724,2.3725,0,2.3475,2.3512,2.3517,2.3536,2.3541,2.3572,2.3589,2.3568,2.3586,2.3601,2.3629,2.3657,2.3679,2.373,2.3725,2.3749,2.3736,2.3792,2.374,2.3744,2.3735,2.3732,2.3735,2.3802,2.3804,2.3805,2.3807,0,2.3609,2.36,2.3625,2.3648,2.3669,2.3686,2.37,2.3717,2.3697,2.3719,2.375,2.3767,2.38,2.3828,2.3849,2.3853,2.3826,2.3823,2.3835,2.3841,2.3843,2.3841,2.3674,2.3819,2.3818,2.3817,2.3816,2.3816,2.3707,2.3738,2.3746,2.3775,2.3783,2.3797,2.3824,2.3821,2.3846,2.3871,2.3858,2.3894,2.3902,2.3928,2.3935,2.3962,2.394,2.3958,2.3962,2.3966,2.3972,2.3841,2.3967,2.3966,2.3966,2.3965,2.3965,0,2.3838,2.3841,2.3868,2.3888,2.391,2.3884,2.3898,2.3918,2.395,2.396,2.3982,2.4017,2.4044,2.4041,2.4065,2.4087,2.4076,2.4094,2.4091,2.4092,2.3991,2.3977,2.4103,2.4103,2.4103,2.4103,2.4103,2.4103,2.3908,2.3958,2.3951,2.4005,2.4007,2.4042,2.4052,2.4064,2.4072,2.4113,2.4135,2.4132,2.4137,2.4161,2.4184,2.4182,2.4192,2.4215,2.4208,2.4113,2.41,2.4087,2.4073,2.4218,2.4218,2.4307,2.4308,2.4308]},{"header":{"parameterUnit":"m.s-1","parameterCategory":1,"la1":30.2991,"la2":30.254,"lo1":-89.0895,"lo2":-89.0444,"dy":0.0017,"dx":0.0017,"nx":28,"ny":28,"refTime":"2023-07-24T21:00:00:Z","depth":0,"parameterNumber":3,"parameterNumberName":"V-component_of_WINDS"},"data":[0,0,0,0,0,0,0,0,0,0,0,0,0,0,0,0,0,0,0,0,0,0,0,0,0,0,0,0,0,0,0,0,0,0,0,0,0,0,0,0,0,0,0,0,0,0,0,0,0,0,0,0,0,0,0,0,0,0,-1.3067,-1.3067,0,-1.3129,-1.313,-1.3131,-1.3153,-1.3152,-1.3152,-1.3152,-1.3216,-1.3217,-1.3219,0,0,0,0,0,0,0,0,0,0,0,0,0,-1.2967,-1.2968,-1.3067,-1.3067,-1.3068,-1.3129,-1.313,-1.3131,-1.3153,-1.3152,-1.3152,-1.3152,-1.3215,-1.3217,-1.322,0,0,0,0,0,0,0,0,0,0,0,0,0,-1.3018,-1.2969,-1.3066,-1.3086,-1.3089,-1.3129,-1.313,-1.3131,-1.3153,-1.3152,-1.3152,-1.3152,-1.3214,-1.3217,-1.322,-1.3245,0,0,-1.3229,-1.323,0,0,0,0,0,0,0,0,-1.3015,-1.3021,-1.3083,-1.3085,-1.3088,-1.3133,-1.3118,-1.3169,-1.3153,-1.3128,-1.3152,-1.3151,-1.3188,-1.3193,-1.3206,-1.3248,-1.325,-1.3229,-1.3231,-1.3232,-1.3233,0,0,0,0,0,0,0,-1.3011,-1.3019,-1.3091,-1.3084,-1.3087,-1.3092,-1.3099,-1.3128,-1.316,-1.3131,-1.3132,-1.3139,-1.319,-1.3203,-1.3207,-1.3251,-1.3229,-1.3231,-1.3233,-1.3234,-1.3317,-1.3318,0,0,0,0,0,0,-1.3004,-1.3016,-1.3089,-1.3093,-1.305,-1.3094,-1.3102,-1.3119,-1.3159,-1.3165,-1.314,-1.314,-1.3198,-1.3204,-1.321,-1.3242,-1.3232,-1.3235,-1.3236,-1.3317,-1.3317,-1.3318,0,0,0,0,0,0,-1.3002,-1.3011,-1.3087,-1.3055,-1.3065,-1.3097,-1.3115,-1.312,-1.3133,-1.3166,-1.3172,-1.3147,-1.3198,-1.3206,-1.3236,-1.3244,-1.3236,-1.3238,-1.3316,-1.3317,-1.3318,-1.3305,0,0,0,0,0,0,-1.2999,-1.301,-1.3019,-1.3055,-1.3067,-1.3112,-1.3115,-1.3122,-1.3138,-1.314,-1.3175,-1.318,-1.3198,-1.3232,-1.3239,-1.3248,-1.3241,-1.3316,-1.3317,-1.3317,-1.3305,-1.3305,-1.3306,0,0,0,0,0,-1.2995,-1.3013,-1.302,-1.3028,-1.3079,-1.3112,-1.3119,-1.3139,-1.3139,-1.3149,-1.317,-1.3179,-1.3242,-1.3234,-1.3243,-1.3253,-1.3315,-1.3316,-1.3317,-1.3305,-1.3305,-1.3306,0,0,0,0,0,0,-1.2977,-1.3018,-1.3026,-1.3055,-1.308,-1.3116,-1.3129,-1.3139,-1.3164,-1.3165,-1.3189,-1.3197,-1.3225,-1.3242,-1.3233,-1.3279,-1.3279,-1.3282,-1.3267,-1.3268,-1.3268,-1.3263,-1.3243,0,0,0,0,0,-1.2977,-1.3,-1.3034,-1.3057,-1.3069,-1.3097,-1.3112,-1.3126,-1.3152,-1.3163,-1.3186,-1.3212,-1.3237,-1.3254,-1.3279,-1.3308,-1.3316,-1.3319,-1.3319,-1.332,-1.3321,-1.3338,-1.334,-1.3321,-1.3321,-1.3321,0,0,-1.2976,-1.3001,-1.3014,-1.3054,-1.3075,-1.3099,-1.3106,-1.313,-1.3148,-1.3167,-1.3197,-1.3215,-1.3245,-1.3275,-1.3289,-1.329,-1.3329,-1.3321,-1.3321,-1.3323,-1.334,-1.3342,-1.3343,-1.3322,-1.3322,-1.3322,0,0,-1.2986,-1.3007,-1.3029,-1.305,-1.3081,-1.31,-1.3105,-1.3139,-1.3152,-1.3183,-1.3197,-1.3219,-1.3262,-1.3283,-1.33,-1.3319,-1.3328,-1.3327,-1.3328,-1.3344,-1.3346,-1.3347,-1.3354,-1.3356,-1.3329,-1.3329,-1.3329,0,-1.298,-1.3017,-1.3039,-1.3063,-1.308,-1.3099,-1.3121,-1.314,-1.3178,-1.319,-1.319,-1.3246,-1.3267,-1.3302,-1.3307,-1.332,-1.3326,-1.3322,-1.3344,-1.3346,-1.3347,-1.3354,-1.3356,-1.3328,-1.3328,-1.3328,-1.3328,0,-1.3009,-1.3033,-1.3047,-1.3084,-1.3103,-1.3126,-1.3151,-1.3168,-1.3181,-1.3199,-1.323,-1.3257,-1.3288,-1.3298,-1.331,-1.3335,-1.3334,-1.3339,-1.3339,-1.3348,-1.3355,-1.3358,-1.3327,-1.3328,-1.3328,-1.3328,0,0,-1.3008,-1.3057,-1.3062,-1.3079,-1.3115,-1.3135,-1.3159,-1.319,-1.3204,-1.323,-1.3251,-1.3288,-1.3292,-1.3311,-1.3326,-1.334,-1.3354,-1.3343,-1.3345,-1.3344,-1.3383,-1.3379,-1.3381,-1.3361,-1.3361,-1.3362,-1.338,0,-1.3023,-1.3066,-1.3087,-1.3122,-1.3145,-1.3163,-1.3185,-1.3209,-1.3228,-1.325,-1.3271,-1.3296,-1.3301,-1.3312,-1.3327,-1.3349,-1.3362,-1.3348,-1.338,-1.3381,-1.3371,-1.3385,-1.338,-1.3396,-1.3383,-1.3384,-1.3384,0,-1.3045,-1.3072,-1.3108,-1.3143,-1.3153,-1.3172,-1.3202,-1.3223,-1.3252,-1.3264,-1.3286,-1.33,-1.3327,-1.3326,-1.3362,-1.3353,-1.3367,-1.338,-1.3381,-1.3384,-1.3382,-1.3388,-1.3402,-1.3404,-1.3388,-1.3388,-1.3388,0,-1.3041,-1.3085,-1.3113,-1.3127,-1.3168,-1.3181,-1.3198,-1.3227,-1.3244,-1.3271,-1.3282,-1.3311,-1.3327,-1.335,-1.3372,-1.3369,-1.3407,-1.3408,-1.3418,-1.3417,-1.3424,-1.3423,-1.344,-1.3434,-1.3434,-1.3434,-1.3434,0,-1.3055,-1.3077,-1.3112,-1.3129,-1.3154,-1.3178,-1.3202,-1.3221,-1.3247,-1.3268,-1.3286,-1.3306,-1.3334,-1.3358,-1.3375,-1.3403,-1.341,-1.3421,-1.3425,-1.3419,-1.3418,-1.3428,-1.3428,-1.3435,-1.3435,-1.3435,-1.3435,0,-1.3054,-1.3078,-1.311,-1.3146,-1.3156,-1.3173,-1.3204,-1.3221,-1.3241,-1.3267,-1.3275,-1.3306,-1.3334,-1.3359,-1.3396,-1.3408,-1.3437,-1.3442,-1.3427,-1.3429,-1.3438,-1.3436,-1.3462,-1.3466,-1.3458,-1.3458,-1.3458,0,-1.3061,-1.3078,-1.3116,-1.3132,-1.3149,-1.3174,-1.3192,-1.3217,-1.3235,-1.3269,-1.3282,-1.3312,-1.3337,-1.3382,-1.3408,-1.3437,-1.3443,-1.345,-1.3447,-1.3441,-1.3443,-1.3441,-1.3443,-1.345,-1.345,-1.345,-1.345,0,-1.307,-1.3082,-1.3107,-1.3136,-1.3157,-1.3182,-1.3207,-1.3218,-1.3248,-1.3267,-1.3297,-1.3316,-1.3355,-1.3384,-1.3416,-1.3435,-1.3447,-1.345,-1.3454,-1.3447,-1.3438,-1.3443,-1.3427,-1.3449,-1.3449,-1.3449,-1.3449,-1.3449,-1.3074,-1.309,-1.3119,-1.3147,-1.3168,-1.3191,-1.3209,-1.3231,-1.3256,-1.3289,-1.3303,-1.3333,-1.3362,-1.3406,-1.3425,-1.3449,-1.3451,-1.3456,-1.3458,-1.3459,-1.3458,-1.3434,-1.3455,-1.3455,-1.3455,-1.3455,-1.3455,0,-1.3084,-1.3104,-1.3129,-1.3163,-1.3185,-1.3195,-1.3223,-1.3241,-1.3267,-1.3293,-1.3318,-1.3352,-1.3381,-1.3409,-1.3439,-1.3453,-1.346,-1.346,-1.3459,-1.3463,-1.3454,-1.3448,-1.3455,-1.3455,-1.3455,-1.3455,-1.3455,-1.3455,-1.3092,-1.312,-1.3135,-1.3174,-1.3194,-1.3223,-1.3239,-1.326,-1.3281,-1.3318,-1.3342,-1.3361,-1.3388,-1.3421,-1.3448,-1.3455,-1.3466,-1.3465,-1.3474,-1.3464,-1.3464,-1.3464,-1.3458,-1.3467,-1.3467,-1.3481,-1.3481,-1.3481]}]]